This is the latest recevied weather packets stored in our database for station/object SP5IZJ-2. If no packets are shown the sender has not sent any weather packets the latest 10 day(s).
| Time | Temp. | Humidity | Pressure | Rain* | Wind** | Luminosity | Snow |
|---|---|---|---|---|---|---|---|
| 1787494797 | 22.22° C | 53% | 1011.3 hPa | 0 mm | - | - | - |
| 1787494372 | 21.67° C | 54% | 1011.3 hPa | 0 mm | - | - | - |
| 1787493970 | 21.11° C | 56% | 1011.3 hPa | 0 mm | - | - | - |
| 1787493112 | 20.56° C | 58% | 1011.3 hPa | 0 mm | - | - | - |
| 1787492273 | 21.11° C | 55% | 1011.3 hPa | 0 mm | - | - | - |
| 1787491857 | 21.11° C | 56% | 1011.2 hPa | 0 mm | - | - | - |
| 1787491013 | 21.11° C | 57% | 1011.2 hPa | 0 mm | - | - | - |
| 1787490593 | 20° C | 58% | 1011.2 hPa | 0 mm | - | - | - |
| 1787490173 | 20° C | 62% | 1011.2 hPa | 0 mm | - | - | - |
| 1787488494 | 20.56° C | 60% | 1011.2 hPa | 0 mm | - | - | - |
| 1787487654 | 19.44° C | 58% | 1011.2 hPa | 0 mm | - | - | - |
| 1787487235 | 20.56° C | 56% | 1011.2 hPa | 0 mm | - | - | - |
| 1787486819 | 21.11° C | 59% | 1011.2 hPa | 0 mm | - | - | - |
| 1787486395 | 20° C | 60% | 1011.3 hPa | 0 mm | - | - | - |
| 1787485975 | 20° C | 59% | 1011.3 hPa | 0 mm | - | - | - |
| 1787484720 | 19.44° C | 61% | 1011.3 hPa | 0 mm | - | - | - |
| 1787484304 | 19.44° C | 60% | 1011.4 hPa | 0 mm | - | - | - |
| 1787483876 | 20° C | 59% | 1011.2 hPa | 0 mm | - | - | - |
| 1787482617 | 19.44° C | 64% | 1011.1 hPa | 0 mm | - | - | - |
| 1787482197 | 19.44° C | 61% | 1011 hPa | 0 mm | - | - | - |
| 1787481357 | 20° C | 63% | 1011 hPa | 0 mm | - | - | - |
| 1787480517 | 18.33° C | 66% | 1011.1 hPa | 0 mm | - | - | - |
| 1787479303 | 18.33° C | 63% | 1011.1 hPa | 0 mm | - | - | - |
| 1787479258 | 18.33° C | 63% | 1011.1 hPa | 0 mm | - | - | - |
| 1787478842 | 18.89° C | 65% | 1011 hPa | 0 mm | - | - | - |
* Rain latest hour (hover to see other rain measurements)
** Current wind speed in m/s (hover to see current wind gust speed)